DAL234 KSLC-KSEA

Flight info

Callsign DAL234
Flight time N/A
Altitude 36000
Route CGULL1 TWF PDT CHINS5
Aircraft B738/M-SDE2E3FGHIRWXY/LB1

Departure

Time 2026-04-30 06:01
Airport Salt Lake City International Airport (KSLC)

Arrival

Time N/A
Airport Seattle–Tacoma International Airport (KSEA)
Time Latitude Longitude Altitude Speed Heading
2026-04-30 05:39 40.78630 -111.98319 4226 ft 0 kts 181°
2026-04-30 05:48 40.78647 -111.98319 4226 ft 3 kts 181°
2026-04-30 05:49 40.78671 -111.98318 4226 ft 3 kts 181°
2026-04-30 05:49 40.78698 -111.98317 4226 ft 3 kts 181°
2026-04-30 05:49 40.78724 -111.98316 4226 ft 3 kts 181°
2026-04-30 05:49 40.78735 -111.98316 4226 ft 0 kts 181°
2026-04-30 05:53 40.78731 -111.98315 4226 ft 2 kts 165°
2026-04-30 05:54 40.78719 -111.98270 4226 ft 6 kts 91°
2026-04-30 05:54 40.78725 -111.98202 4226 ft 7 kts 83°
2026-04-30 05:54 40.78730 -111.98128 4226 ft 8 kts 85°
2026-04-30 05:54 40.78735 -111.98056 4228 ft 7 kts 85°
2026-04-30 05:55 40.78737 -111.98014 4228 ft 1 kts 85°
2026-04-30 05:55 40.78737 -111.98009 4228 ft 1 kts 85°
2026-04-30 05:55 40.78739 -111.97986 4227 ft 3 kts 85°
2026-04-30 05:55 40.78742 -111.97935 4226 ft 7 kts 85°
2026-04-30 05:56 40.78747 -111.97855 4226 ft 9 kts 85°
2026-04-30 05:56 40.78752 -111.97769 4226 ft 8 kts 85°
2026-04-30 05:56 40.78736 -111.97694 4226 ft 9 kts 147°
2026-04-30 05:56 40.78666 -111.97674 4226 ft 10 kts 173°
2026-04-30 05:57 40.78592 -111.97663 4227 ft 10 kts 175°
2026-04-30 05:57 40.78519 -111.97655 4229 ft 10 kts 175°
2026-04-30 05:57 40.78447 -111.97648 4229 ft 10 kts 175°
2026-04-30 05:57 40.78367 -111.97639 4229 ft 12 kts 175°
2026-04-30 05:58 40.78279 -111.97629 4229 ft 13 kts 175°
2026-04-30 05:58 40.78183 -111.97620 4229 ft 14 kts 174°
2026-04-30 05:58 40.78080 -111.97604 4229 ft 15 kts 173°
2026-04-30 05:58 40.77969 -111.97590 4229 ft 16 kts 173°
2026-04-30 05:59 40.77858 -111.97539 4229 ft 17 kts 157°
2026-04-30 05:59 40.77736 -111.97516 4229 ft 18 kts 175°
2026-04-30 05:59 40.77605 -111.97504 4229 ft 19 kts 176°
2026-04-30 05:59 40.77492 -111.97486 4229 ft 9 kts 165°
2026-04-30 06:00 40.77452 -111.97421 4229 ft 10 kts 91°
2026-04-30 06:00 40.77490 -111.97341 4229 ft 11 kts 37°
2026-04-30 06:00 40.77568 -111.97327 4229 ft 12 kts 355°
2026-04-30 06:00 40.77685 -111.97340 4230 ft 37 kts 355°
2026-04-30 06:01 40.78259 -111.97408 4229 ft 126 kts 355°
2026-04-30 06:01 40.79374 -111.97531 4437 ft 179 kts 356°
2026-04-30 06:01 40.80607 -111.97562 5430 ft 180 kts
2026-04-30 06:01 40.81764 -111.97613 6449 ft 175 kts 351°
2026-04-30 06:02 40.83029 -111.98163 6889 ft 201 kts 332°
2026-04-30 06:02 40.84109 -111.99257 7832 ft 199 kts 315°
2026-04-30 06:02 40.84991 -112.00616 8648 ft 204 kts 305°
2026-04-30 06:02 40.85625 -112.02395 9169 ft 225 kts 292°
2026-04-30 06:03 40.86246 -112.04321 9758 ft 238 kts 304°
2026-04-30 06:03 40.87407 -112.05983 10314 ft 257 kts 320°
2026-04-30 06:03 40.88762 -112.07596 11167 ft 268 kts 317°
2026-04-30 06:03 40.90097 -112.09399 11907 ft 284 kts 313°
2026-04-30 06:04 40.91422 -112.11372 12662 ft 297 kts 311°
2026-04-30 06:04 40.92786 -112.13482 13344 ft 312 kts 311°
2026-04-30 06:04 40.94215 -112.15710 14261 ft 319 kts 311°
2026-04-30 06:05 40.97102 -112.20193 16203 ft 326 kts 311°
2026-04-30 06:05 40.98563 -112.22450 17173 ft 329 kts 311°
2026-04-30 06:05 41.00051 -112.24748 18106 ft 333 kts 311°
2026-04-30 06:05 41.01563 -112.27082 18987 ft 337 kts 311°
2026-04-30 06:06 41.03082 -112.29429 19858 ft 341 kts 311°
2026-04-30 06:06 41.04633 -112.31826 20682 ft 346 kts 311°
2026-04-30 06:06 41.06198 -112.34248 21523 ft 350 kts 311°
2026-04-30 06:06 41.07771 -112.36686 22313 ft 353 kts 311°
2026-04-30 06:07 41.09374 -112.39170 22903 ft 359 kts 311°
2026-04-30 06:07 41.11008 -112.41708 23187 ft 364 kts 311°
2026-04-30 06:07 41.12651 -112.44260 24030 ft 365 kts 311°
2026-04-30 06:07 41.14290 -112.46808 24832 ft 366 kts 311°
2026-04-30 06:08 41.15962 -112.49343 25485 ft 370 kts 313°
2026-04-30 06:08 41.17791 -112.51760 26109 ft 374 kts 318°
2026-04-30 06:08 41.19785 -112.53999 26717 ft 377 kts 321°
2026-04-30 06:08 41.21852 -112.56136 27305 ft 381 kts 322°
2026-04-30 06:09 41.23978 -112.58264 27842 ft 385 kts 323°
2026-04-30 06:09 41.26123 -112.60387 28397 ft 389 kts 322°
2026-04-30 06:09 41.28198 -112.62712 28957 ft 391 kts 317°
2026-04-30 06:09 41.30129 -112.65234 29485 ft 394 kts 314°
2026-04-30 06:10 41.32006 -112.67886 29993 ft 398 kts 312°
2026-04-30 06:10 41.33890 -112.70646 30518 ft 401 kts 312°
2026-04-30 06:10 41.35744 -112.73398 30986 ft 404 kts 311°
2026-04-30 06:10 41.37603 -112.76163 31568 ft 403 kts 312°
2026-04-30 06:11 41.39464 -112.78926 32218 ft 400 kts 312°
2026-04-30 06:11 41.41302 -112.81667 32821 ft 398 kts 311°
2026-04-30 06:11 41.43132 -112.84449 33367 ft 397 kts 311°
2026-04-30 06:11 41.44924 -112.87206 33846 ft 396 kts 311°
2026-04-30 06:12 41.46743 -112.90012 34272 ft 396 kts 311°
2026-04-30 06:12 41.48541 -112.92784 34751 ft 395 kts 311°
2026-04-30 06:12 41.50324 -112.95532 35204 ft 394 kts 311°
2026-04-30 06:12 41.52129 -112.98312 35682 ft 392 kts 311°
2026-04-30 06:13 41.53899 -113.01035 36062 ft 392 kts 311°
2026-04-30 06:13 41.55705 -113.03813 36175 ft 395 kts 311°
2026-04-30 06:13 41.57499 -113.06575 36185 ft 393 kts 311°
2026-04-30 06:14 41.61042 -113.12035 36184 ft 391 kts 311°
2026-04-30 06:14 41.64600 -113.17527 36188 ft 391 kts 311°
2026-04-30 06:15 41.68154 -113.23022 36187 ft 391 kts 311°
2026-04-30 06:15 41.71689 -113.28495 36189 ft 391 kts 311°
2026-04-30 06:16 41.75252 -113.34023 36196 ft 391 kts 311°
2026-04-30 06:16 41.78776 -113.39500 36201 ft 390 kts 311°
2026-04-30 06:17 41.82332 -113.44974 36183 ft 390 kts 312°
2026-04-30 06:17 41.85894 -113.50409 36168 ft 390 kts 313°
2026-04-30 06:18 41.89482 -113.55878 36193 ft 390 kts 311°
2026-04-30 06:18 41.92958 -113.61469 36201 ft 390 kts 311°
2026-04-30 06:19 41.96439 -113.67040 36197 ft 390 kts 311°
2026-04-30 06:19 41.99932 -113.72578 36197 ft 390 kts 311°
2026-04-30 06:20 42.03446 -113.78121 36198 ft 390 kts 311°